Torna al catalogo

SL-14 DEB

AttivoPO
NORAD 45272·DEBRIS·🇷🇺 Russia

Lanciato Aug 15, 1991 da Plesetsk Cosmodrome

Loading…

Prossimi Passaggi (prossime 24 ore)

TLE

AggiornatoSource: Space-Track

Epoca: Sep 13, 2026, 10:12 UTC

1 45272U 91056J   26256.42518589 -.00001628  00000-0 -14297-2 0  9998
2 45272  82.6519 307.0307 0159443   4.8342 355.4309 13.80378088328132

Traccia SL-14 DEB in tempo reale con AllMySat

Download on the App Store